User: anonymous   Login
Location: Unspecified
(43.4680°N, 87.1740°E)
Time: 04:18:05
(UTC+00:00)
Language:

Cosmos 2219 - Orbit

View from above orbital plane
View from above orbital plane
View from above satellite
View from above satellite

Ground track
Ground track

The orbit data is extracted from the following two-line orbital elements,

1 22219U 92076A   21174.84847862 -.00000049  00000-0 -11617-5 0  9998
2 22219  71.0619  11.8641 0020310 304.2160  55.7037 14.13669025475623
Epoch (UTC): 23 June 2021 20:21:48
Eccentricity: 0.0020310
inclination: 71.0619°
perigee height: 832 km
apogee height: 861 km
right ascension of ascending node: 11.8641°
argument of perigee: 304.2160°
revolutions per day: 14.13669025
mean anomaly at epoch: 55.7037°
orbit number at epoch: 47562

The dashed part of the orbit path shows where the satellite is in the earth's shadow,  

DLR